| time (UTC) | temp F | wind direction | speed knots | gust knots | rain 1hr in | rain 24hr in | rain mn in | humidity % | barometer mb |
| 20260505221803 | 66 | 231 | 5.2 | 13.0 | 0.00 | 0.00 | 0.00 | 28 | |
| 20260505221113 | 66 | 234 | 5.2 | 17.4 | 0.00 | 0.00 | 0.00 | 27 | |
| 20260505220213 | 64 | 247 | 5.2 | 10.4 | 0.00 | 0.00 | 0.00 | 30 | |
| 20260505215403 | 65 | 257 | 3.5 | 11.3 | 0.00 | 0.00 | 0.00 | 29 | |
| 20260505214503 | 65 | 259 | 5.2 | 11.3 | 0.00 | 0.00 | 0.00 | 28 | |
| 20260505213603 | 65 | 268 | 5.2 | 10.4 | 0.00 | 0.00 | 0.00 | 29 | |
| 20260505212703 | 65 | 280 | 4.3 | 11.3 | 0.00 | 0.00 | 0.00 | 30 | |
| 20260505211803 | 65 | 284 | 4.3 | 9.6 | 0.00 | 0.00 | 0.00 | 30 | |
| 20260505210903 | 65 | 285 | 6.1 | 13.0 | 0.00 | 0.00 | 0.00 | 30 | |
| 20260505210004 | 64 | 230 | 4.3 | 9.6 | 0.00 | 0.00 | 0.00 | 30 | |
| 20260505205403 | 65 | 272 | 5.2 | 11.3 | 0.00 | 0.00 | 0.00 | 30 | |
| 20260505204503 | 65 | 247 | 3.5 | 11.3 | 0.00 | 0.00 | 0.00 | 28 | |
| 20260505203813 | 63 | 237 | 1.7 | 5.2 | 0.00 | 0.00 | 0.00 | 30 | |
| 20260505202703 | 63 | 265 | 4.3 | 9.6 | 0.00 | 0.00 | 0.00 | 31 | |
| 20260505201803 | 64 | 277 | 3.5 | 8.7 | 0.00 | 0.00 | 0.00 | 32 | |
| 20260505200904 | 63 | 231 | 4.3 | 10.4 | 0.00 | 0.00 | 0.00 | 29 | |
| 20260505200003 | 63 | 256 | 3.5 | 14.8 | 0.00 | 0.00 | 0.00 | 32 | |
| 20260505195403 | 63 | 256 | 4.3 | 9.6 | 0.00 | 0.00 | 0.00 | 29 | |
| 20260505194503 | 62 | 268 | 5.2 | 9.6 | 0.00 | 0.00 | 0.00 | 30 | |
| 20260505193603 | 62 | 277 | 4.3 | 9.6 | 0.00 | 0.00 | 0.00 | 30 | |
| 20260505192703 | 61 | 319 | 4.3 | 8.7 | 0.00 | 0.00 | 0.00 | 33 | |
| 20260505191803 | 62 | 302 | 3.5 | 7.8 | 0.00 | 0.00 | 0.00 | 33 | |
| 20260505190903 | 61 | 305 | 2.6 | 7.8 | 0.00 | 0.00 | 0.00 | 32 | |
| 20260505190004 | 61 | 325 | 1.7 | 3.5 | 0.00 | 0.00 | 0.00 | 32 | |
| 20260505185403 | 60 | 277 | 2.6 | 7.8 | 0.00 | 0.00 | 0.00 | 34 | |
| 20260505184503 | 59 | 300 | 4.3 | 9.6 | 0.00 | 0.00 | 0.00 | 32 | |
| 20260505183814 | 60 | 303 | 3.5 | 9.6 | 0.00 | 0.00 | 0.00 | 31 | |
| 20260505182913 | 60 | 218 | 4.3 | 10.4 | 0.00 | 0.00 | 0.00 | 31 | |
| 20260505181803 | 59 | 298 | 4.3 | 7.8 | 0.00 | 0.00 | 0.00 | 33 | |
| 20260505180903 | 59 | 278 | 5.2 | 10.4 | 0.00 | 0.00 | 0.00 | 33 | |
| 20260505180003 | 59 | 267 | 4.3 | 10.4 | 0.00 | 0.00 | 0.00 | 33 | |
| 20260505175403 | 59 | 271 | 4.3 | 10.4 | 0.00 | 0.00 | 0.00 | 35 | |
| 20260505174503 | 59 | 272 | 4.3 | 8.7 | 0.00 | 0.00 | 0.00 | 35 | |
| 20260505173814 | 59 | 264 | 4.3 | 12.2 | 0.00 | 0.00 | 0.00 | 36 | |
| 20260505172703 | 58 | 277 | 6.1 | 11.3 | 0.00 | 0.00 | 0.00 | 35 | |
| 20260505171803 | 58 | 269 | 7.0 | 11.3 | 0.00 | 0.00 | 0.00 | 35 | |
| 20260505170903 | 57 | 264 | 5.2 | 12.2 | 0.00 | 0.00 | 0.00 | 38 | |
| 20260505170003 | 57 | 228 | 6.1 | 11.3 | 0.00 | 0.00 | 0.00 | 35 | |
| 20260505165403 | 56 | 229 | 5.2 | 9.6 | 0.00 | 0.00 | 0.00 | 37 | |
| 20260505164503 | 55 | 222 | 6.1 | 13.0 | 0.00 | 0.00 | 0.00 | 39 | |
| 20260505163813 | 55 | 220 | 5.2 | 12.2 | 0.00 | 0.00 | 0.00 | 39 | |
| 20260505162703 | 55 | 214 | 5.2 | 9.6 | 0.00 | 0.00 | 0.00 | 39 | |
| 20260505161803 | 55 | 215 | 5.2 | 13.9 | 0.00 | 0.00 | 0.00 | 40 | |
| 20260505160903 | 54 | 226 | 6.1 | 13.0 | 0.00 | 0.00 | 0.00 | 41 | |
| 20260505152703 | 52 | 206 | 5.2 | 10.4 | 0.00 | 0.00 | 0.00 | 42 | |
| 20260505151803 | 51 | 217 | 4.3 | 9.6 | 0.00 | 0.00 | 0.00 | 43 | |
| 20260505150903 | 50 | 195 | 3.5 | 7.0 | 0.00 | 0.00 | 0.00 | 44 | |
| 20260505150214 | 50 | 214 | 3.5 | 7.8 | 0.00 | 0.00 | 0.00 | 44 | |
| 20260505140214 | 42 | 236 | 0.9 | 2.6 | 0.00 | 0.00 | 0.00 | 64 | |
| 20260505124503 | 38 | 185 | 0.9 | 2.6 | 0.00 | 0.00 | 0.00 | 61 | |
| 20260505123603 | 37 | 0 | 0.0 | 0.0 | 0.00 | 0.00 | 0.00 | 60 | |
| 20260505122703 | 37 | 0 | 0.0 | 0.0 | 0.00 | 0.00 | 0.00 | 59 | |
| 20260505121803 | 37 | 185 | 0.0 | 1.7 | 0.00 | 0.00 | 0.00 | 58 | |
| 20260505120903 | 37 | 185 | 0.0 | 2.6 | 0.00 | 0.00 | 0.00 | 57 | |
| 20260505120004 | 38 | 185 | 0.0 | 1.7 | 0.00 | 0.00 | 0.00 | 56 | |
| 20260505115613 | 37 | 185 | 0.0 | 1.7 | 0.00 | 0.00 | 0.00 | 56 | |
| 20260505114503 | 38 | 185 | 0.0 | 1.7 | 0.00 | 0.00 | 0.00 | 57 | |
| 20260505113603 | 38 | 185 | 0.9 | 2.6 | 0.00 | 0.00 | 0.00 | 56 | |
| 20260505112703 | 37 | 185 | 0.0 | 2.6 | 0.00 | 0.00 | 0.00 | 58 | |
| 20260505111803 | 37 | 186 | 0.9 | 3.5 | 0.00 | 0.00 | 0.00 | 59 | |
| 20260505111113 | 38 | 186 | 0.9 | 3.5 | 0.00 | 0.00 | 0.00 | 57 | |
| 20260505101803 | 36 | 207 | 0.0 | 1.7 | 0.00 | 0.00 | 0.00 | 61 | |
| 20260505100903 | 36 | 207 | 0.0 | 1.7 | 0.00 | 0.00 | 0.00 | 60 | |
| 20260505100212 | 36 | 207 | 0.9 | 2.6 | 0.00 | 0.00 | 0.00 | 60 | |
| 20260505095403 | 37 | 207 | 1.7 | 2.6 | 0.00 | 0.00 | 0.00 | 58 | |
| 20260505094503 | 38 | 207 | 1.7 | 3.5 | 0.00 | 0.00 | 0.00 | 56 | |
| 20260505093603 | 39 | 208 | 0.9 | 2.6 | 0.00 | 0.00 | 0.00 | 53 | |
| 20260505092914 | 40 | 207 | 0.9 | 2.6 | 0.00 | 0.00 | 0.00 | 52 | |
| 20260505091803 | 40 | 207 | 1.7 | 3.5 | 0.00 | 0.00 | 0.00 | 51 | |
| 20260505090903 | 40 | 206 | 1.7 | 3.5 | 0.00 | 0.00 | 0.00 | 50 | |
| 20260505090003 | 41 | 206 | 1.7 | 3.5 | 0.00 | 0.00 | 0.00 | 49 | |
| 20260505085403 | 41 | 205 | 1.7 | 4.3 | 0.00 | 0.00 | 0.00 | 49 | |
| 20260505084503 | 41 | 190 | 0.9 | 3.5 | 0.00 | 0.00 | 0.00 | 48 | |
| 20260505083812 | 41 | 189 | 0.9 | 3.5 | 0.00 | 0.00 | 0.00 | 46 | |
| 20260505082703 | 42 | 188 | 1.7 | 3.5 | 0.00 | 0.00 | 0.00 | 45 | |
| 20260505082013 | 43 | 186 | 1.7 | 4.3 | 0.00 | 0.00 | 0.00 | 45 | |
| 20260505081114 | 43 | 176 | 1.7 | 3.5 | 0.00 | 0.00 | 0.00 | 44 | |
| 20260505080003 | 43 | 172 | 1.7 | 3.5 | 0.00 | 0.00 | 0.00 | 43 | |
| 20260505075403 | 43 | 172 | 1.7 | 4.3 | 0.00 | 0.00 | 0.00 | 43 | |
| 20260505074503 | 43 | 171 | 1.7 | 3.5 | 0.00 | 0.00 | 0.00 | 42 | |
| 20260505073603 | 42 | 172 | 0.9 | 3.5 | 0.00 | 0.00 | 0.00 | 42 | |
| 20260505072703 | 43 | 175 | 2.6 | 6.1 | 0.00 | 0.00 | 0.00 | 42 | |
| 20260505071803 | 43 | 186 | 3.5 | 6.1 | 0.00 | 0.00 | 0.00 | 42 | |
| 20260505070903 | 42 | 187 | 2.6 | 5.2 | 0.00 | 0.00 | 0.00 | 42 | |
| 20260505070003 | 42 | 186 | 1.7 | 4.3 | 0.00 | 0.00 | 0.00 | 43 | |
| 20260505065403 | 42 | 187 | 1.7 | 4.3 | 0.00 | 0.00 | 0.00 | 43 | |
| 20260505064503 | 42 | 174 | 1.7 | 5.2 | 0.00 | 0.00 | 0.00 | 42 | |
| 20260505063603 | 43 | 154 | 0.9 | 2.6 | 0.00 | 0.00 | 0.00 | 40 | |
| 20260505062703 | 44 | 154 | 0.0 | 2.6 | 0.00 | 0.00 | 0.00 | 38 | |
| 20260505061803 | 46 | 154 | 0.0 | 0.9 | 0.00 | 0.00 | 0.00 | 36 | |
| 20260505060903 | 48 | 153 | 0.9 | 2.6 | 0.00 | 0.00 | 0.00 | 34 | |
| 20260505060215 | 49 | 151 | 1.7 | 4.3 | 0.00 | 0.00 | 0.00 | 32 | |
| 20260505055403 | 49 | 145 | 2.6 | 6.1 | 0.00 | 0.00 | 0.00 | 31 | |
| 20260505054503 | 50 | 163 | 2.6 | 6.1 | 0.00 | 0.00 | 0.00 | 31 | |
| 20260505053603 | 51 | 149 | 3.5 | 6.1 | 0.00 | 0.00 | 0.00 | 30 | |
| 20260505052703 | 51 | 136 | 3.5 | 7.0 | 0.00 | 0.00 | 0.00 | 30 | |
| 20260505051803 | 50 | 139 | 3.5 | 7.8 | 0.00 | 0.00 | 0.00 | 31 | |
| 20260505050903 | 49 | 148 | 2.6 | 6.1 | 0.00 | 0.00 | 0.00 | 33 | |
| 20260505040903 | 53 | 166 | 2.6 | 7.8 | 0.00 | 0.00 | 0.00 | 32 | |
| 20260505040004 | 53 | 166 | 2.6 | 7.0 | 0.00 | 0.00 | 0.00 | 33 | |
| 20260505035403 | 53 | 164 | 3.5 | 10.4 | 0.00 | 0.00 | 0.00 | 33 | |
| 20260505034503 | 53 | 171 | 2.6 | 7.0 | 0.00 | 0.00 | 0.00 | 33 | |
| 20260505033603 | 53 | 176 | 3.5 | 8.7 | 0.00 | 0.00 | 0.00 | 34 | |
| 20260505032703 | 54 | 171 | 4.3 | 9.6 | 0.00 | 0.00 | 0.00 | 34 | |
| 20260505031803 | 54 | 185 | 3.5 | 8.7 | 0.00 | 0.00 | 0.00 | 34 | |
| 20260505030903 | 54 | 182 | 5.2 | 9.6 | 0.00 | 0.00 | 0.00 | 34 | |
| 20260505030003 | 54 | 184 | 6.1 | 11.3 | 0.00 | 0.00 | 0.00 | 34 | |
| 20260505025403 | 55 | 184 | 6.1 | 11.3 | 0.00 | 0.00 | 0.00 | 34 | |
| 20260505024503 | 55 | 186 | 7.0 | 13.0 | 0.00 | 0.00 | 0.00 | 34 | |
| 20260505023814 | 55 | 188 | 7.0 | 13.0 | 0.00 | 0.00 | 0.00 | 33 | |
| 20260505022703 | 56 | 194 | 5.2 | 11.3 | 0.00 | 0.00 | 0.00 | 34 | |
| 20260505021803 | 57 | 194 | 6.1 | 14.8 | 0.00 | 0.00 | 0.00 | 34 | |
| 20260505020903 | 58 | 195 | 7.0 | 14.8 | 0.00 | 0.00 | 0.00 | 34 | |
| 20260505020213 | 58 | 190 | 8.7 | 18.2 | 0.00 | 0.00 | 0.00 | 35 | |
| 20260505015403 | 59 | 187 | 8.7 | 18.2 | 0.00 | 0.00 | 0.00 | 35 | |
| 20260505014714 | 59 | 192 | 7.8 | 14.8 | 0.00 | 0.00 | 0.00 | 36 | |
| 20260505013603 | 59 | 197 | 7.8 | 15.6 | 0.00 | 0.00 | 0.00 | 37 | |
| 20260505012703 | 60 | 198 | 6.1 | 13.0 | 0.00 | 0.00 | 0.00 | 38 | |
| 20260505011803 | 60 | 192 | 8.7 | 16.5 | 0.00 | 0.00 | 0.00 | 38 | |
| 20260505010903 | 60 | 191 | 8.7 | 14.8 | 0.00 | 0.00 | 0.00 | 38 | |
| 20260505010003 | 61 | 190 | 8.7 | 17.4 | 0.00 | 0.00 | 0.00 | 37 | |
| 20260505005612 | 62 | 193 | 7.8 | 17.4 | 0.00 | 0.00 | 0.00 | 37 | |
| 20260505004503 | 62 | 189 | 9.6 | 16.5 | 0.00 | 0.00 | 0.00 | 37 | |
| 20260505003813 | 63 | 193 | 8.7 | 16.5 | 0.00 | 0.00 | 0.00 | 37 | |
| 20260505002912 | 63 | 190 | 9.6 | 16.5 | 0.00 | 0.00 | 0.00 | 37 | |
| 20260505001803 | 62 | 193 | 7.0 | 14.8 | 0.00 | 0.00 | 0.00 | 36 | |
| 20260505001113 | 62 | 190 | 7.8 | 19.1 | 0.00 | 0.00 | 0.00 | 36 | |
| 20260505000003 | 62 | 197 | 7.0 | 13.0 | 0.00 | 0.00 | 0.00 | 35 | |
| 20260504235403 | 63 | 195 | 7.8 | 15.6 | 0.00 | 0.00 | 0.00 | 35 | |
| 20260504234503 | 64 | 189 | 7.8 | 20.0 | 0.00 | 0.00 | 0.00 | 34 | |
| 20260504233813 | 64 | 178 | 7.8 | 15.6 | 0.00 | 0.00 | 0.00 | 33 | |
| 20260504232703 | 64 | 206 | 8.7 | 16.5 | 0.00 | 0.00 | 0.00 | 34 | |
| 20260504232013 | 64 | 203 | 7.8 | 15.6 | 0.00 | 0.00 | 0.00 | 33 | |
| 20260504231113 | 64 | 190 | 8.7 | 18.2 | 0.00 | 0.00 | 0.00 | 33 | |
| 20260504230003 | 64 | 197 | 10.4 | 18.2 | 0.00 | 0.00 | 0.00 | 33 | |
| 20260504225403 | 64 | 210 | 8.7 | 18.2 | 0.00 | 0.00 | 0.00 | 33 | |
| 20260504224503 | 65 | 202 | 9.6 | 18.2 | 0.00 | 0.00 | 0.00 | 34 | |
| 20260504223603 | 65 | 205 | 8.7 | 20.0 | 0.00 | 0.00 | 0.00 | 34 | |
| 20260504222703 | 66 | 203 | 9.6 | 17.4 | 0.00 | 0.00 | 0.00 | 33 | |
| 20260504222013 | 66 | 203 | 9.6 | 19.1 | 0.00 | 0.00 | 0.00 | 33 |